Satellite: NOAA-12 Catalog number: 21263 Epoch time: 13360.51112170 Element set: 103 Inclination: 098.6807 deg RA of node: 024.2093 deg Eccentricity: 0.0013980 Arg of perigee: 025.3784 deg Mean anomaly: 134.2969 deg Mean motion: 14.25612305 rev/day Decay rate: 8.7e-07 rev/day^2 Epoch rev: 17595 Checksum: 276
Satellite: MET-3/5 Catalog number: 21655 Epoch time: 13359.99158174 Element set: 864 Inclination: 082.5597 deg RA of node: 118.7938 deg Eccentricity: 0.0013630 Arg of perigee: 016.7034 deg Mean anomaly: 343.4303 deg Mean motion: 13.17054193 rev/day Decay rate: 2.53e-06 rev/day^2 Epoch rev: 7518 Checksum: 312
Satellite: MET-2/21 Catalog number: 22782 Epoch time: 13360.89234728 Element set: 933 Inclination: 082.5511 deg RA of node: 310.0077 deg Eccentricity: 0.0022860 Arg of perigee: 031.9520 deg Mean anomaly: 348.2809 deg Mean motion: 13.83720896 rev/day Decay rate: 5.7e-07 rev/day^2 Epoch rev: 2629 Checksum: 298
Satellite: OKEAN-4 Catalog number: 23317 Epoch time: 13360.54318819 Element set: 412 Inclination: 082.5378 deg RA of node: 229.7064 deg Eccentricity: 0.0019705 Arg of perigee: 313.3294 deg Mean anomaly: 094.4411 deg Mean motion: 14.84928496 rev/day Decay rate: 1.005e-05 rev/day^2 Epoch rev: 3748 Checksum: 304
Satellite: NOAA-14 Catalog number: 23455 Epoch time: 13360.49381860 Element set: 582 Inclination: 098.7913 deg RA of node: 081.9178 deg Eccentricity: 0.0009997 Arg of perigee: 165.9524 deg Mean anomaly: 317.0354 deg Mean motion: 14.13939772 rev/day Decay rate: -2.0e-08 rev/day^2 Epoch rev: 97954 Checksum: 346
Satellite: NOAA-15 Catalog number: 25338 Epoch time: 13360.51046495 Element set: 12 Inclination: 098.7405 deg RA of node: 349.8334 deg Eccentricity: 0.0009605 Arg of perigee: 290.9521 deg Mean anomaly: 178.2787 deg Mean motion: 14.25317273 rev/day Decay rate: 1.46e-06 rev/day^2 Epoch rev: 81224 Checksum: 305
Satellite: RESURS Catalog number: 25394 Epoch time: 13359.85022192 Element set: 549 Inclination: 098.3890 deg RA of node: 326.7533 deg Eccentricity: 0.0002291 Arg of perigee: 073.1251 deg Mean anomaly: 316.5195 deg Mean motion: 14.24357079 rev/day Decay rate: 3.6e-07 rev/day^2 Epoch rev: 80364 Checksum: 302
Satellite: FENGYUN1 Catalog number: 25730 Epoch time: 13359.47841334 Element set: 42 Inclination: 098.8977 deg RA of node: 316.8814 deg Eccentricity: 0.0025325 Arg of perigee: 235.4884 deg Mean anomaly: 271.7634 deg Mean motion: 14.11161206 rev/day Decay rate: 1.432e-05 rev/day^2 Epoch rev: 75301 Checksum: 296
Satellite: OKEAN-0 Catalog number: 25860 Epoch time: 13360.48511139 Element set: 131 Inclination: 098.0190 deg RA of node: 320.6738 deg Eccentricity: 0.0000902 Arg of perigee: 122.0193 deg Mean anomaly: 022.4587 deg Mean motion: 14.74873651 rev/day Decay rate: 6.12e-06 rev/day^2 Epoch rev: 77669 Checksum: 284
Satellite: NOAA-16 Catalog number: 26536 Epoch time: 13360.54184949 Element set: 499 Inclination: 099.0165 deg RA of node: 054.9555 deg Eccentricity: 0.0009684 Arg of perigee: 315.7409 deg Mean anomaly: 171.8032 deg Mean motion: 14.12964488 rev/day Decay rate: 7.4e-07 rev/day^2 Epoch rev: 68373 Checksum: 345
Satellite: NOAA-17 Catalog number: 27453 Epoch time: 13360.45862291 Element set: 404 Inclination: 098.3107 deg RA of node: 004.3176 deg Eccentricity: 0.0010779 Arg of perigee: 325.7732 deg Mean anomaly: 192.9015 deg Mean motion: 14.24665229 rev/day Decay rate: 1.53e-06 rev/day^2 Epoch rev: 59809 Checksum: 307
Satellite: NOAA-18 Catalog number: 28654 Epoch time: 13360.49873302 Element set: 892 Inclination: 099.1270 deg RA of node: 331.7417 deg Eccentricity: 0.0014749 Arg of perigee: 032.5306 deg Mean anomaly: 116.2904 deg Mean motion: 14.11916258 rev/day Decay rate: 2.69e-06 rev/day^2 Epoch rev: 44319 Checksum: 309
Satellite: NOAA-19 Catalog number: 33591 Epoch time: 13360.48734912 Element set: 64 Inclination: 098.9266 deg RA of node: 301.2293 deg Eccentricity: 0.0013144 Arg of perigee: 245.3396 deg Mean anomaly: 249.7422 deg Mean motion: 14.11609404 rev/day Decay rate: 2.59e-06 rev/day^2 Epoch rev: 25162 Checksum: 299
/EX SB KEPS @ AMSAT $ORB13360.M Orbital Elements 13360.MISC
HR AMSAT ORBITAL ELEMENTS FOR MANNED AND MISCELLANEOUS SATELLITES FROM WA5QGD FORT WORTH,TX December 26, 2013 BID: ORB13360.M TO ALL RADIO AMATEURS BT
Satellite: HUBBLE Catalog number: 20580 Epoch time: 13360.51196914 Element set: 403 Inclination: 028.4709 deg RA of node: 091.4094 deg Eccentricity: 0.0002739 Arg of perigee: 240.4728 deg Mean anomaly: 236.0540 deg Mean motion: 15.04415747 rev/day Decay rate: 2.334e-05 rev/day^2 Epoch rev: 9868 Checksum: 285
Satellite: ISS Catalog number: 25544 Epoch time: 13360.93889909 Element set: 330 Inclination: 051.6493 deg RA of node: 233.3055 deg Eccentricity: 0.0004516 Arg of perigee: 316.6423 deg Mean anomaly: 121.3116 deg Mean motion: 15.50069092 rev/day Decay rate: 9.146e-05 rev/day^2 Epoch rev: 86460 Checksum: 288
Satellite: CO-58 Catalog number: 28895 Epoch time: 13359.81293098 Element set: 655 Inclination: 097.8475 deg RA of node: 205.5725 deg Eccentricity: 0.0017362 Arg of perigee: 193.5903 deg Mean anomaly: 166.4834 deg Mean motion: 14.61448766 rev/day Decay rate: 9.40e-06 rev/day^2 Epoch rev: 43492 Checksum: 361
Satellite: FALCON Catalog number: 30776 Epoch time: 13360.55416821 Element set: 766 Inclination: 035.4303 deg RA of node: 099.8857 deg Eccentricity: 0.0001450 Arg of perigee: 179.3932 deg Mean anomaly: 301.0624 deg Mean motion: 15.12908986 rev/day Decay rate: 7.828e-05 rev/day^2 Epoch rev: 37454 Checksum: 316
Satellite: MAST Catalog number: 31126 Epoch time: 13360.12701747 Element set: 932 Inclination: 097.8968 deg RA of node: 345.2736 deg Eccentricity: 0.0093174 Arg of perigee: 173.3656 deg Mean anomaly: 277.8610 deg Mean motion: 14.54872887 rev/day Decay rate: 5.12e-06 rev/day^2 Epoch rev: 35522 Checksum: 320
Satellite: CAPE1 Catalog number: 31130 Epoch time: 13359.88383732 Element set: 937 Inclination: 097.9163 deg RA of node: 341.5128 deg Eccentricity: 0.0099895 Arg of perigee: 191.0436 deg Mean anomaly: 168.8569 deg Mean motion: 14.53893195 rev/day Decay rate: 7.46e-06 rev/day^2 Epoch rev: 35462 Checksum: 351
Satellite: COMPASS Catalog number: 32787 Epoch time: 13360.12206092 Element set: 814 Inclination: 097.7284 deg RA of node: 053.5428 deg Eccentricity: 0.0014958 Arg of perigee: 037.4242 deg Mean anomaly: 322.8012 deg Mean motion: 14.86515477 rev/day Decay rate: 2.673e-05 rev/day^2 Epoch rev: 30646 Checksum: 299
Satellite: AAUSAT2 Catalog number: 32788 Epoch time: 13360.80627246 Element set: 799 Inclination: 097.7293 deg RA of node: 055.0063 deg Eccentricity: 0.0014360 Arg of perigee: 034.7027 deg Mean anomaly: 325.5123 deg Mean motion: 14.87080285 rev/day Decay rate: 3.291e-05 rev/day^2 Epoch rev: 30661 Checksum: 299
Satellite: DO-64 Catalog number: 32789 Epoch time: 13360.18925543 Element set: 834 Inclination: 097.7465 deg RA of node: 059.4334 deg Eccentricity: 0.0013413 Arg of perigee: 027.1521 deg Mean anomaly: 039.8925 deg Mean motion: 14.90536226 rev/day Decay rate: 6.576e-05 rev/day^2 Epoch rev: 30670 Checksum: 323
Satellite: CO-66 Catalog number: 32791 Epoch time: 13360.82421966 Element set: 794 Inclination: 097.7282 deg RA of node: 053.3116 deg Eccentricity: 0.0015528 Arg of perigee: 037.5171 deg Mean anomaly: 016.3397 deg Mean motion: 14.85459896 rev/day Decay rate: 2.555e-05 rev/day^2 Epoch rev: 30646 Checksum: 337
Satellite: RS-30 Catalog number: 32953 Epoch time: 13360.82779304 Element set: 501 Inclination: 082.5037 deg RA of node: 308.3895 deg Eccentricity: 0.0018498 Arg of perigee: 169.3241 deg Mean anomaly: 190.8250 deg Mean motion: 12.43041072 rev/day Decay rate: 1.0e-07 rev/day^2 Epoch rev: 25384 Checksum: 284
Satellite: METEOR-M Catalog number: 35865 Epoch time: 13360.75433084 Element set: 110 Inclination: 098.5762 deg RA of node: 048.1841 deg Eccentricity: 0.0001798 Arg of perigee: 224.9502 deg Mean anomaly: 135.1529 deg Mean motion: 14.21903148 rev/day Decay rate: 6.0e-08 rev/day^2 Epoch rev: 22183 Checksum: 281
Satellite: RS-38 Catalog number: 35869 Epoch time: 13360.75339603 Element set: 61 Inclination: 098.5698 deg RA of node: 048.0381 deg Eccentricity: 0.0003901 Arg of perigee: 233.4688 deg Mean anomaly: 126.6127 deg Mean motion: 14.22167859 rev/day Decay rate: 6.4e-07 rev/day^2 Epoch rev: 22186 Checksum: 324
Satellite: JUGNU Catalog number: 37839 Epoch time: 13359.86224602 Element set: 529 Inclination: 019.9601 deg RA of node: 225.3421 deg Eccentricity: 0.0018958 Arg of perigee: 235.0698 deg Mean anomaly: 218.9663 deg Mean motion: 14.12225100 rev/day Decay rate: 4.20e-06 rev/day^2 Epoch rev: 11402 Checksum: 282
Satellite: SRMSAT Catalog number: 37841 Epoch time: 13360.05241162 Element set: 528 Inclination: 019.9708 deg RA of node: 240.0498 deg Eccentricity: 0.0011868 Arg of perigee: 182.7814 deg Mean anomaly: 321.2038 deg Mean motion: 14.10282560 rev/day Decay rate: 3.95e-06 rev/day^2 Epoch rev: 11389 Checksum: 284
Satellite: RAX-2 Catalog number: 37853 Epoch time: 13360.12583263 Element set: 680 Inclination: 101.7042 deg RA of node: 302.8952 deg Eccentricity: 0.0226975 Arg of perigee: 196.1249 deg Mean anomaly: 287.6477 deg Mean motion: 14.86089412 rev/day Decay rate: 5.164e-05 rev/day^2 Epoch rev: 11692 Checksum: 320
Satellite: AUBIESAT Catalog number: 37854 Epoch time: 13360.84230843 Element set: 665 Inclination: 101.7086 deg RA of node: 305.2622 deg Eccentricity: 0.0225988 Arg of perigee: 192.0707 deg Mean anomaly: 237.7789 deg Mean motion: 14.87054584 rev/day Decay rate: 4.934e-05 rev/day^2 Epoch rev: 11706 Checksum: 324
